Weather History for Sedalia, MO

Change the Weather History Date:

Friday, January 18, 2013

  Actual Average Record
Temperature  
Mean Temperature 43 °F 31 °F  
Max Temperature 56 °F 40 °F 67 °F (1951)
Min Temperature 30 °F 23 °F -15 °F (1978)
Degree Days  
Heating Degree Days 22 34  
Month to date heating degree days 564 610  
Since 1 July heating degree days 2228 2391  
Cooling Degree Days 0 0  
Month to date cooling degree days 0 0  
Year to date cooling degree days 0 0  
Moisture  
Dew Point 26 °F    
Average Humidity 55    
Maximum Humidity 78    
Minimum Humidity 32    
Precipitation  
Precipitation 0.00 in 0.07 in 0.40 in (1970)
Month to date precipitation 0.48 0.94  
Year to date precipitation 0.48 0.94  
Sea Level Pressure  
Sea Level Pressure 30.27 in    
Wind  
Wind Speed 16 mph (SSW)    
Max Wind Speed 28 mph    
Max Gust Speed 38 mph    
Visibility 10 miles    
Events      
T = Trace of Precipitation, MM = Missing Value Source: NWS Daily Summary

Daily Weather History Graph

Daily Weather History Graph

Search for Another Location

Airport:

Trip Planner

Search our weather history database for the weather conditions in past years. The results will help you decide how hot, cold, wet, or windy it might be!

Date:

Astronomy

Jan. 18, 2013 Rise Set
Actual Time 7:27 AM CST 5:18 PM CST
Civil Twilight 6:59 AM CST 5:47 PM CST
Nautical Twilight 6:26 AM CST 6:20 PM CST
Astronomical Twilight 5:54 AM CST 6:52 PM CST
Moon 11:12 AM CST (1/18) 12:04 AM CST (1/18)
Length of Visible Light 10h 48m
Length of Day
9h 51m
Waxing Crescent, 47% of the Moon is Illuminated
Jan 18
Waxing Crescent
Jan 18
First Quarter
Jan 26
Full
Feb 3
Last Quarter
Feb 10
New

Hourly Weather History & Observations

Time (CST) Temp. Windchill Dew Point Humidity Pressure Visibility Wind Dir Wind Speed Gust Speed Precip Events Conditions
12:53 AM 30.9 °F 23.5 °F 24.1 °F 76% 30.47 in 10.0 mi South 8.1 mph - N/A   Clear
1:53 AM 30.9 °F 21.7 °F 25.0 °F 79% 30.47 in 10.0 mi South 11.5 mph - N/A   Clear
2:53 AM 32.0 °F 23.6 °F 24.1 °F 73% 30.47 in 10.0 mi South 10.4 mph - N/A   Clear
3:53 AM 32.0 °F 23.0 °F 24.1 °F 73% 30.45 in 10.0 mi South 11.5 mph - N/A   Clear
4:53 AM 33.1 °F 23.9 °F 24.1 °F 70% 30.43 in 10.0 mi South 12.7 mph - N/A   Clear
5:53 AM 33.1 °F 24.4 °F 24.1 °F 70% 30.41 in 10.0 mi SSW 11.5 mph - N/A   Clear
6:53 AM 34.0 °F 24.2 °F 24.1 °F 67% 30.41 in 10.0 mi SSW 15.0 mph - N/A   Clear
7:53 AM 34.0 °F 24.2 °F 24.1 °F 67% 30.40 in 10.0 mi South 15.0 mph - N/A   Clear
8:53 AM 37.9 °F 28.9 °F 26.1 °F 62% 30.39 in 10.0 mi SSW 16.1 mph - N/A   Clear
9:53 AM 44.1 °F 36.5 °F 28.0 °F 53% 30.37 in 10.0 mi SSW 17.3 mph 25.3 mph N/A   Clear
10:53 AM 46.9 °F - 28.0 °F 48% 30.34 in 10.0 mi SSW 17.3 mph - N/A   Clear
11:53 AM 50.0 °F - 28.9 °F 44% 30.28 in 10.0 mi SSW 21.9 mph 26.5 mph N/A   Clear
12:53 PM 52.0 °F - 28.0 °F 40% 30.22 in 10.0 mi SSW 24.2 mph 35.7 mph N/A   Clear
1:53 PM 54.0 °F - 28.9 °F 38% 30.19 in 10.0 mi SSW 18.4 mph 28.8 mph N/A   Clear
2:53 PM 55.9 °F - 28.0 °F 34% 30.17 in 10.0 mi SSW 20.7 mph 34.5 mph N/A   Clear
3:53 PM 55.9 °F - 27.0 °F 33% 30.14 in 10.0 mi SSW 20.7 mph 29.9 mph N/A   Clear
4:53 PM 53.1 °F - 26.1 °F 35% 30.12 in 10.0 mi SSW 19.6 mph 25.3 mph N/A   Clear
5:53 PM 50.0 °F - 27.0 °F 41% 30.13 in 10.0 mi SSW 13.8 mph - N/A   Clear
6:53 PM 50.0 °F - 26.1 °F 39% 30.13 in 10.0 mi SSW 17.3 mph - N/A   Clear
7:53 PM 48.9 °F - 26.1 °F 41% 30.14 in 10.0 mi SW 15.0 mph - N/A   Clear
8:53 PM 46.9 °F - 27.0 °F 46% 30.12 in 10.0 mi SSW 16.1 mph - N/A   Clear
9:53 PM 46.9 °F - 27.0 °F 46% 30.12 in 10.0 mi SSW 18.4 mph 25.3 mph N/A   Clear
10:53 PM 46.9 °F - 28.0 °F 48% 30.10 in 10.0 mi SW 20.7 mph 29.9 mph N/A   Clear
11:53 PM 46.0 °F 38.3 °F 28.0 °F 50% 30.08 in 10.0 mi SW 20.7 mph 32.2 mph N/A   Clear